Regional Weather Roundup
Issued by NWS New Orleans/Baton Rouge, LA

Home | Current Version | Previous Version | Text Only | Print | Product List | Glossary Off
Versions: 1 2 3 4 5 6 7 8 9 10 11 12 13 14 15 16 17 18 19 20 21 22 23 24 25 26 27 28 29 30 31 32 33 34 35 36 37 38 39 40 41 42 43 44 45 46 47 48 49 50

646
ASUS44 KLIX 242010
RWRLIX
NEW ORLEANS REGIONAL WEATHER ROUNDUP
NATIONAL WEATHER SERVICE NEW ORLEANS LA
300 PM CDT THU APR 24 2014

NOTE: "FAIR" INDICATES FEW OR NO CLOUDS BELOW 12,000 FEET WITH NO
      SIGNIFICANT WEATHER AND/OR OBSTRUCTIONS TO VISIBILITY.
      SKY/WX - SKY CONDITION AND SIGNIFICANT WEATHER.
      TMP - AIR TEMPERATURE.     DP    - DEWPOINT TEMPERATURE.
      RH  - RELATIVE HUMIDITY.   PRES  - PRESSURE.
      HI  - HEAT INDEX.          WCI   - WIND CHILL INDEX.

*  THESE STATIONS ARE NOT NWS OR FAA STATIONS AND ARE NOT UNDER
   NWS QUALITY CONTROL.

LAZ038-040-048-061>063-065>067-069-242100-
SOUTHEAST LOUISIANA

CITY           SKY/WX    TMP DP  RH WIND       PRES   REMARKS
N.O. AUDUBON     N/A     81  66  59 MISG        N/A
N.O. INTL ARPT PTSUNNY   82  66  58 S16       29.93S
N.O. LAKEFRONT PTSUNNY   82  64  54 S13       29.93F
N.O. DOWNTOWN*   N/A     84  63  48 S13G18    29.94R
SLIDELL        PTSUNNY   80  62  54 S6G17     29.93F
BATON ROUGE    PTSUNNY   82  63  52 S12       29.91F
BOOTHVILLE     SUNNY     75  66  73 S8        29.97S
BELLE CHASSE   PTSUNNY   79  65  62 S13       29.94S
BOGALUSA*        N/A     85  58  41 S6G16     29.93F
GALLIANO*      MOCLDY    81  64  56 S10       29.95S
NEW ROADS*     MOCLDY    81  65  56 S9G21     29.88F
GONZALES*      MOCLDY    83  66  56 SW9G17    29.92F
HAMMOND*       MOSUNNY   84  63  48 S9        29.93F
HOUMA*         MOSUNNY   79  64  61 SE12      29.95S
PORT FOURCHON* PTCLDY    75  66  73 SE10      29.97F

$$

MSZ070-080>082-242100-
SOUTHERN MISSISSIPPI

CITY           SKY/WX    TMP DP  RH WIND       PRES   REMARKS
MCCOMB         PTSUNNY   81  61  50 S12       29.91F
GULFPORT       MOSUNNY   78  65  63 S10       29.95S
BILOXI         MOSUNNY   76  65  69 S10       29.95F
PASCAGOULA     MOSUNNY   77  65  66 S12       29.95F
STENNIS ARPT*  MOSUNNY   79  63  57 S12G17    29.94F

$$

COASTAL OBSERVATIONS
LAKE AND NEARSHORE STATIONS

STATION/POSITION TIME  TEMP    WIND        PRES    WAVE
                       AIR SEA DIR/SP/G            HT/PER
                 (UTC) (F)     (DEG/KT/KT) (MB)    (FT/S)
PASCAGOULA       2000   74     210/ 10/ 12 1014.0
WAVELAND YACHT   2000   73 76  160/ 11/ 12 1013.6
GRAND ISLE       2000   74 72  170/  6/ 10 1015.1
SOUTHWEST PASS   2000   77 62  170/  4/  6 1015.0
NEW CANAL        2000   80 74  220/  7/ 12 1014.0
SHELL BEACH      2000   75 69  150/ 12/ 19 1013.8

OFFSHORE STATIONS

STATION/POSITION TIME  TEMP    WIND        PRES    WAVE
                       AIR SEA DIR/SP/G            HT/PER
                 (UTC) (F)     (DEG/KT/KT) (MB)    (FT/S)
64 S DAUPHIN ISL 1910   72 74  190/  6/  8 1015.0

$$




USA.gov is the U.S. government's official web portal to all federal, state and local government web resources and services.